Andover, NJ

6:04 AM EST on December 09, 2019 (GMT -0500)
Andover

Weather History for K12N - September, 2019

Change the Weather History Date:

Wednesday, September 11, 2019

  Actual Average (WUND) Record (WUND)
Temperature  
Mean Temperature 75 °F -  
Max Temperature 87 °F - - (-1)
Min Temperature 64 °F - - (-1)
Cooling Degree Days 10    
Growing Degree Days 25 (Base 50)    
Moisture  
Dew Point 68 °F    
Average Humidity 83    
Maximum Humidity 97    
Minimum Humidity 61    
Precipitation  
Precipitation 0.17 in - - ()
Sea Level Pressure  
Sea Level Pressure 30.12 in    
Wind  
Wind Speed 4 mph (SW)    
Max Wind Speed 10 mph    
Max Gust Speed 18 mph    
Averages and records for this station are not official NWS values.
T = Trace of Precipitation, MM = Missing Value Source: NWS Daily Summary

Daily Weather History Graph

Daily Weather History Graph

Search for Another Location

Airport or City:

Astronomy

Sep. 11, 2019 Rise Set
Actual Time 6:35 AM EDT 7:15 PM EDT
Civil Twilight 6:07 AM EDT 7:42 PM EDT
Nautical Twilight 5:34 AM EDT 8:15 PM EDT
Astronomical Twilight 5:00 AM EDT 8:49 PM EDT
Moon 6:27 PM EDT (9/11) 3:53 AM EDT (9/11)
Length of Visible Light 13h 35m
Length of Day
12h 39m
Waxing Gibbous, 94% of the Moon is Illuminated
Sep 11
Waxing Gibbous
Sep 14
Full
Sep 21
Last Quarter
Sep 28
New
Oct 5
First Quarter

Hourly Weather History & Observations

Time (EDT) Temp. Heat Index Dew Point Humidity Pressure Visibility Wind Dir Wind Speed Gust Speed Precip Events Conditions
1:54 AM 64.9 °F - 63.0 °F 93% 30.23 in - Calm Calm - N/A   Unknown
2:54 AM 64.9 °F - 64.0 °F 97% 30.22 in - SSW 4.6 mph - N/A   Unknown
3:54 AM 66.9 °F - 64.0 °F 90% 30.21 in - Variable 4.6 mph - N/A   Unknown
5:54 AM 66.9 °F - 64.0 °F 90% 30.20 in - SSW 4.6 mph - N/A   Unknown
6:54 AM 66.0 °F - 64.0 °F 93% 30.21 in - Calm Calm - N/A   Unknown
7:54 AM 68.0 °F - 64.9 °F 90% 30.20 in - Calm Calm - N/A   Unknown
8:54 AM 70.0 °F - 64.9 °F 84% 30.19 in - SSW 6.9 mph - N/A   Unknown
9:54 AM 73.0 °F - 64.9 °F 76% 30.19 in - SW 9.2 mph 16.1 mph N/A   Unknown
10:54 AM 73.9 °F - 66.9 °F 79% 30.16 in - SSW 10.4 mph 18.4 mph N/A   Unknown
11:54 AM 77.0 °F - 68.0 °F 74% 30.14 in - SSW 8.1 mph - N/A   Unknown
12:54 PM 80.1 °F 82.9 °F 69.1 °F 69% 30.11 in - SSW 8.1 mph - N/A   Unknown
1:54 PM 82.9 °F 87.0 °F 70.0 °F 65% 30.08 in - SSW 8.1 mph - N/A   Unknown
2:54 PM 84.9 °F 90.1 °F 71.1 °F 63% 30.06 in - SW 9.2 mph - N/A   Unknown
3:54 PM 84.9 °F 90.1 °F 71.1 °F 63% 30.04 in - SSW 6.9 mph - N/A   Unknown
4:54 PM 86.0 °F 91.5 °F 71.1 °F 61% 30.02 in - SW 6.9 mph - N/A   Unknown
5:54 PM 80.1 °F 84.5 °F 73.9 °F 81% 30.03 in - Calm Calm - N/A   Unknown
6:54 PM 75.9 °F - 73.0 °F 91% 30.03 in - Calm Calm - N/A   Unknown
7:54 PM 75.0 °F - 73.0 °F 94% 30.04 in - Calm Calm - N/A   Unknown
8:54 PM 73.9 °F - 73.0 °F 97% 30.05 in - Calm Calm - N/A   Unknown
9:54 PM 73.9 °F - 72.0 °F 93% 30.06 in - WNW 3.5 mph - N/A   Unknown
10:54 PM 72.0 °F - 71.1 °F 97% 30.04 in - Calm Calm - 0.17 in   Unknown
11:54 PM 71.1 °F - 70.0 °F 96% 30.03 in - Calm Calm - N/A   Unknown